Time,TemperatureF,DewpointF,PressureIn,WindDirection,WindDirectionDegrees,WindSpeedMPH,WindSpeedGustMPH,Humidity,HourlyPrecipIn,Conditions,Clouds,dailyrainin,SoftwareType,DateUTC
2013-08-23 02:54:00,69.1,60.5,29.00,SW,225,0.0,0.0,74,0.00,,---,0.00,VWS V13.01,2013-08-23 06:54:00,
2013-08-23 02:55:00,69.1,60.5,29.00,SW,225,0.0,0.0,74,0.00,,---,0.00,VWS V13.01,2013-08-23 06:55:00,
2013-08-23 02:56:00,69.1,60.5,29.00,SW,225,0.0,0.0,74,0.00,,---,0.00,VWS V13.01,2013-08-23 06:56:00,
2013-08-23 02:57:00,69.1,60.5,29.00,SW,225,0.0,0.0,74,0.00,,---,0.00,VWS V13.01,2013-08-23 06:57:00,
2013-08-23 03:02:00,69.1,60.5,29.00,SW,225,0.0,0.0,74,0.00,,---,0.00,VWS V13.01,2013-08-23 07:02:00,
2013-08-23 03:07:00,69.1,61.2,29.00,SW,225,0.0,0.0,76,0.00,,---,0.00,VWS V13.01,2013-08-23 07:07:00,
2013-08-23 03:12:00,69.3,61.4,29.00,SW,225,0.0,0.0,76,0.00,,---,0.00,VWS V13.01,2013-08-23 07:12:00,
2013-08-23 03:17:00,69.3,61.8,29.00,SW,225,0.0,0.0,77,0.00,,---,0.00,VWS V13.01,2013-08-23 07:17:00,
2013-08-23 03:22:00,69.3,61.8,29.00,SW,225,0.0,0.0,77,0.00,,---,0.00,VWS V13.01,2013-08-23 07:22:00,
2013-08-23 03:27:00,69.3,61.8,29.00,SW,225,0.0,0.0,77,0.00,,---,0.00,VWS V13.01,2013-08-23 07:27:00,
2013-08-23 03:32:00,69.4,62.3,29.00,SW,225,0.0,0.0,78,0.00,,---,0.00,VWS V13.01,2013-08-23 07:32:00,
2013-08-23 03:37:00,69.4,62.3,29.00,SW,225,0.0,0.0,78,0.00,,---,0.00,VWS V13.01,2013-08-23 07:37:00,
2013-08-23 03:42:00,69.4,62.3,29.00,SW,225,0.0,0.0,78,0.00,,---,0.00,VWS V13.01,2013-08-23 07:42:00,
2013-08-23 03:47:00,69.4,62.3,29.00,SW,225,0.0,0.0,78,0.00,,---,0.00,VWS V13.01,2013-08-23 07:47:00,
2013-08-23 03:52:00,69.4,62.3,29.00,SW,225,0.0,0.0,78,0.00,,---,0.00,VWS V13.01,2013-08-23 07:52:00,
2013-08-23 03:57:00,69.6,62.5,29.00,SW,225,0.0,0.0,78,0.00,,---,0.00,VWS V13.01,2013-08-23 07:57:00,
2013-08-23 04:02:00,69.6,62.5,29.00,SW,225,0.0,0.0,78,0.00,,---,0.00,VWS V13.01,2013-08-23 08:02:00,
2013-08-23 04:07:00,69.4,62.7,29.00,SW,225,0.0,0.0,79,0.00,,---,0.00,VWS V13.01,2013-08-23 08:07:00,
2013-08-23 04:12:00,69.4,62.7,29.00,SW,225,0.0,0.0,79,0.00,,---,0.00,VWS V13.01,2013-08-23 08:12:00,
2013-08-23 04:17:00,69.4,62.7,29.00,SW,225,0.0,0.0,79,0.00,,---,0.00,VWS V13.01,2013-08-23 08:17:00,
2013-08-23 04:22:00,69.4,62.7,29.00,SW,225,0.0,0.0,79,0.00,,---,0.00,VWS V13.01,2013-08-23 08:22:00,
2013-08-23 04:27:00,69.4,62.7,29.00,SW,225,0.0,0.0,79,0.00,,---,0.00,VWS V13.01,2013-08-23 08:27:00,
2013-08-23 04:32:00,69.4,62.7,29.00,SW,225,0.0,0.0,79,0.00,,---,0.00,VWS V13.01,2013-08-23 08:32:00,
2013-08-23 04:37:00,69.4,62.7,29.00,SW,225,0.0,0.0,79,0.00,,---,0.00,VWS V13.01,2013-08-23 08:37:00,
2013-08-23 04:43:00,69.6,62.8,29.00,SW,225,0.0,0.0,79,0.00,,---,0.00,VWS V13.01,2013-08-23 08:43:00,
2013-08-23 04:48:00,69.6,62.8,29.00,SW,225,0.0,0.0,79,0.00,,---,0.00,VWS V13.01,2013-08-23 08:48:00,
2013-08-23 04:53:00,69.6,62.8,29.00,SW,225,0.0,0.0,79,0.00,,---,0.00,VWS V13.01,2013-08-23 08:53:00,
2013-08-23 04:58:00,69.6,62.8,29.00,SW,225,0.0,0.0,79,0.00,,---,0.00,VWS V13.01,2013-08-23 08:58:00,
2013-08-23 05:03:00,69.6,63.2,29.00,SW,225,0.0,0.0,80,0.00,,---,0.00,VWS V13.01,2013-08-23 09:03:00,
2013-08-23 05:08:00,69.6,63.2,29.00,SW,225,0.0,0.0,80,0.00,,---,0.00,VWS V13.01,2013-08-23 09:08:00,
2013-08-23 05:13:00,69.8,63.0,29.00,SW,225,0.0,0.0,79,0.00,,---,0.00,VWS V13.01,2013-08-23 09:13:00,
2013-08-23 05:18:00,69.8,63.0,29.00,SW,225,0.0,0.0,79,0.00,,---,0.00,VWS V13.01,2013-08-23 09:18:00,
2013-08-23 05:23:00,69.8,63.0,29.00,SW,225,0.0,0.0,79,0.00,,---,0.00,VWS V13.01,2013-08-23 09:23:00,
2013-08-23 05:28:00,69.8,63.0,29.00,SW,225,0.0,0.0,79,0.00,,---,0.00,VWS V13.01,2013-08-23 09:28:00,
2013-08-23 05:33:00,69.8,63.0,29.00,SW,225,0.0,0.0,79,0.00,,---,0.00,VWS V13.01,2013-08-23 09:33:00,
2013-08-23 05:38:00,70.0,63.5,29.00,SW,225,0.0,0.0,80,0.00,,---,0.00,VWS V13.01,2013-08-23 09:38:00,
2013-08-23 05:43:00,70.0,63.5,29.00,SW,225,0.0,0.0,80,0.00,,---,0.00,VWS V13.01,2013-08-23 09:43:00,
2013-08-23 05:48:00,69.8,63.4,29.00,SW,225,0.0,0.0,80,0.00,,---,0.00,VWS V13.01,2013-08-23 09:48:00,
2013-08-23 05:53:00,69.8,63.4,29.00,SW,225,0.0,0.0,80,0.00,,---,0.00,VWS V13.01,2013-08-23 09:53:00,
2013-08-23 05:58:00,69.8,63.4,29.00,SW,225,0.0,0.0,80,0.00,,---,0.00,VWS V13.01,2013-08-23 09:58:00,
2013-08-23 06:03:00,69.8,63.4,29.00,SW,225,0.0,0.0,80,0.00,,---,0.00,VWS V13.01,2013-08-23 10:03:00,
2013-08-23 06:08:00,69.8,63.4,29.00,SW,225,0.0,0.0,80,0.00,,---,0.00,VWS V13.01,2013-08-23 10:08:00,
2013-08-23 06:13:00,69.8,63.4,29.00,SW,225,0.0,0.0,80,0.00,,---,0.00,VWS V13.01,2013-08-23 10:13:00,
2013-08-23 06:18:00,69.8,63.4,29.00,SW,225,0.0,0.0,80,0.00,,---,0.00,VWS V13.01,2013-08-23 10:18:00,
2013-08-23 06:23:00,69.8,63.4,29.00,SW,225,0.0,0.0,80,0.00,,---,0.00,VWS V13.01,2013-08-23 10:23:00,
2013-08-23 06:28:00,69.8,63.4,29.00,SW,225,0.0,0.0,80,0.00,,---,0.00,VWS V13.01,2013-08-23 10:28:00,
2013-08-23 06:33:00,69.8,63.4,29.00,SW,225,0.0,0.0,80,0.00,,---,0.00,VWS V13.01,2013-08-23 10:33:00,
2013-08-23 06:39:00,69.8,63.4,29.00,SW,225,0.0,0.0,80,0.00,,---,0.00,VWS V13.01,2013-08-23 10:39:00,
2013-08-23 06:44:00,69.8,63.4,29.00,SW,225,0.0,0.0,80,0.00,,---,0.00,VWS V13.01,2013-08-23 10:44:00,
2013-08-23 06:49:00,70.0,63.5,29.03,SW,225,0.0,0.0,80,0.00,,---,0.00,VWS V13.01,2013-08-23 10:49:00,
2013-08-23 06:54:00,69.8,63.4,29.03,SW,225,0.0,0.0,80,0.00,,---,0.00,VWS V13.01,2013-08-23 10:54:00,
2013-08-23 06:59:00,69.8,63.4,29.03,SW,225,0.0,0.0,80,0.00,,---,0.00,VWS V13.01,2013-08-23 10:59:00,
2013-08-23 07:04:00,70.0,63.5,29.03,SW,225,0.0,0.0,80,0.00,,---,0.00,VWS V13.01,2013-08-23 11:04:00,
2013-08-23 07:09:00,70.0,63.5,29.03,SW,225,0.0,0.0,80,0.00,,---,0.00,VWS V13.01,2013-08-23 11:09:00,
2013-08-23 07:14:00,70.0,63.5,29.03,SW,225,0.0,0.0,80,0.00,,---,0.00,VWS V13.01,2013-08-23 11:14:00,
2013-08-23 07:19:00,70.0,63.5,29.00,SW,225,0.0,0.0,80,0.00,,---,0.00,VWS V13.01,2013-08-23 11:19:00,
2013-08-23 07:24:00,70.0,63.5,29.00,SW,225,0.0,0.0,80,0.00,,---,0.00,VWS V13.01,2013-08-23 11:24:00,
2013-08-23 07:29:00,70.2,63.7,29.00,SW,225,0.0,0.0,80,0.00,,---,0.00,VWS V13.01,2013-08-23 11:29:00,
2013-08-23 07:34:00,70.2,63.7,29.03,SW,225,0.0,0.0,80,0.00,,---,0.00,VWS V13.01,2013-08-23 11:34:00,
2013-08-23 07:39:00,70.2,63.7,29.03,SW,225,0.0,0.0,80,0.00,,---,0.00,VWS V13.01,2013-08-23 11:39:00,
2013-08-23 07:44:00,70.2,63.7,29.03,SW,225,0.0,0.0,80,0.00,,---,0.00,VWS V13.01,2013-08-23 11:44:00,
2013-08-23 07:49:00,70.3,63.9,29.03,SW,225,0.0,0.0,80,0.00,,---,0.00,VWS V13.01,2013-08-23 11:49:00,
2013-08-23 07:54:00,70.3,63.9,29.03,SW,225,0.0,0.0,80,0.00,,---,0.00,VWS V13.01,2013-08-23 11:54:00,
2013-08-23 07:59:00,70.3,63.9,29.03,SW,225,0.0,0.0,80,0.00,,---,0.00,VWS V13.01,2013-08-23 11:59:00,
2013-08-23 08:04:00,70.3,63.9,29.03,SW,225,0.0,0.0,80,0.00,,---,0.00,VWS V13.01,2013-08-23 12:04:00,
2013-08-23 08:09:00,70.3,63.9,29.03,SW,225,0.0,0.0,80,0.00,,---,0.00,VWS V13.01,2013-08-23 12:09:00,
2013-08-23 08:14:00,70.3,63.9,29.03,SW,225,0.0,0.0,80,0.00,,---,0.00,VWS V13.01,2013-08-23 12:14:00,
2013-08-23 08:19:00,70.3,63.9,29.03,SW,225,0.0,0.0,80,0.00,,---,0.00,VWS V13.01,2013-08-23 12:19:00,
2013-08-23 08:24:00,70.3,63.9,29.03,SW,225,0.0,0.0,80,0.00,,---,0.00,VWS V13.01,2013-08-23 12:24:00,
2013-08-23 08:29:00,70.3,63.9,29.03,SW,225,0.0,0.0,80,0.00,,---,0.00,VWS V13.01,2013-08-23 12:29:00,
2013-08-23 08:34:00,70.3,63.9,29.03,SW,225,0.0,0.0,80,0.00,,---,0.00,VWS V13.01,2013-08-23 12:34:00,
2013-08-23 08:39:00,70.3,63.9,29.03,SW,225,0.0,0.0,80,0.00,,---,0.00,VWS V13.01,2013-08-23 12:39:00,
2013-08-23 08:45:00,70.3,63.9,29.03,SW,225,0.0,0.0,80,0.00,,---,0.00,VWS V13.01,2013-08-23 12:45:00,
2013-08-23 08:50:00,70.2,63.7,29.03,SW,225,0.0,0.0,80,0.00,,---,0.00,VWS V13.01,2013-08-23 12:50:00,
2013-08-23 08:55:00,70.2,63.7,29.03,SW,225,0.0,0.0,80,0.00,,---,0.00,VWS V13.01,2013-08-23 12:55:00,
2013-08-23 09:00:00,70.2,63.7,29.03,SW,225,0.0,0.0,80,0.00,,---,0.00,VWS V13.01,2013-08-23 13:00:00,
2013-08-23 09:05:00,70.3,63.9,29.03,SW,225,0.0,0.0,80,0.04,,---,0.04,VWS V13.01,2013-08-23 13:05:00,
2013-08-23 09:10:00,70.3,63.9,29.03,SW,225,0.0,0.0,80,0.04,,---,0.04,VWS V13.01,2013-08-23 13:10:00,
2013-08-23 09:15:00,70.3,63.9,29.03,SW,225,0.0,0.0,80,0.04,,---,0.04,VWS V13.01,2013-08-23 13:15:00,
2013-08-23 09:20:00,70.3,63.9,29.03,SW,225,0.0,0.0,80,0.04,,---,0.04,VWS V13.01,2013-08-23 13:20:00,
2013-08-23 09:25:00,70.3,63.9,29.03,SW,225,0.0,0.0,80,0.04,,---,0.04,VWS V13.01,2013-08-23 13:25:00,
2013-08-23 09:30:00,70.3,63.9,29.03,SW,225,0.0,0.0,80,0.04,,---,0.04,VWS V13.01,2013-08-23 13:30:00,
2013-08-23 09:35:00,70.2,63.7,29.03,SW,225,0.0,0.0,80,0.04,,---,0.04,VWS V13.01,2013-08-23 13:35:00,
2013-08-23 09:40:00,70.2,63.7,29.03,SW,225,0.0,0.0,80,0.04,,---,0.04,VWS V13.01,2013-08-23 13:40:00,
2013-08-23 09:45:00,70.2,63.7,29.03,SW,225,0.0,0.0,80,0.04,,---,0.04,VWS V13.01,2013-08-23 13:45:00,
2013-08-23 09:50:00,70.2,63.7,29.03,SW,225,0.0,0.0,80,0.04,,---,0.04,VWS V13.01,2013-08-23 13:50:00,
2013-08-23 09:55:00,70.0,63.5,29.03,SW,225,0.0,0.0,80,0.04,,---,0.04,VWS V13.01,2013-08-23 13:55:00,
2013-08-23 10:00:00,70.0,63.5,29.03,SW,225,0.0,0.0,80,0.04,,---,0.04,VWS V13.01,2013-08-23 14:00:00,
2013-08-23 10:05:00,70.0,63.5,29.06,SW,225,0.0,0.0,80,0.00,,---,0.04,VWS V13.01,2013-08-23 14:05:00,
2013-08-23 10:10:00,70.0,63.5,29.06,SW,225,0.0,0.0,80,0.05,,---,0.09,VWS V13.01,2013-08-23 14:10:00,
2013-08-23 10:15:00,70.2,63.7,29.06,SW,225,0.0,0.0,80,0.05,,---,0.09,VWS V13.01,2013-08-23 14:15:00,
2013-08-23 10:20:00,70.2,63.7,29.06,SW,225,0.0,0.0,80,0.05,,---,0.09,VWS V13.01,2013-08-23 14:20:00,
2013-08-23 10:25:00,70.3,63.9,29.06,SW,225,0.0,0.0,80,0.09,,---,0.13,VWS V13.01,2013-08-23 14:25:00,
2013-08-23 10:30:00,70.3,63.9,29.06,SW,225,0.0,0.0,80,0.09,,---,0.13,VWS V13.01,2013-08-23 14:30:00,
2013-08-23 10:35:00,70.3,63.9,29.06,SW,225,0.0,0.0,80,0.09,,---,0.13,VWS V13.01,2013-08-23 14:35:00,
2013-08-23 10:41:00,70.3,63.9,29.06,SW,225,0.0,0.0,80,0.09,,---,0.13,VWS V13.01,2013-08-23 14:41:00,
2013-08-23 10:46:00,70.3,63.9,29.06,SW,225,0.0,0.0,80,0.13,,---,0.17,VWS V13.01,2013-08-23 14:46:00,
2013-08-23 10:51:00,70.3,63.9,29.09,SW,225,0.0,0.0,80,0.13,,---,0.17,VWS V13.01,2013-08-23 14:51:00,
2013-08-23 10:56:00,70.3,63.9,29.09,SW,225,0.0,0.0,80,0.13,,---,0.17,VWS V13.01,2013-08-23 14:56:00,
2013-08-23 11:01:00,70.3,63.9,29.09,SW,225,0.0,0.0,80,0.17,,---,0.21,VWS V13.01,2013-08-23 15:01:00,
2013-08-23 11:06:00,70.3,63.9,29.09,SW,225,0.0,0.0,80,0.17,,---,0.21,VWS V13.01,2013-08-23 15:06:00,
2013-08-23 11:11:00,70.2,63.7,29.09,SW,225,0.0,0.0,80,0.21,,---,0.25,VWS V13.01,2013-08-23 15:11:00,
2013-08-23 11:16:00,70.0,63.5,29.09,SW,225,0.0,0.0,80,0.21,,---,0.25,VWS V13.01,2013-08-23 15:16:00,
2013-08-23 11:21:00,69.6,63.5,29.09,SW,225,0.0,0.0,81,0.34,,---,0.38,VWS V13.01,2013-08-23 15:21:00,
2013-08-23 11:26:00,69.4,63.4,29.09,SW,225,0.0,0.0,81,0.25,,---,0.38,VWS V13.01,2013-08-23 15:26:00,
2013-08-23 11:31:00,68.9,62.8,29.09,SW,225,0.0,0.0,81,0.25,,---,0.38,VWS V13.01,2013-08-23 15:31:00,
2013-08-23 11:36:00,68.2,62.1,29.09,SW,225,0.0,0.0,81,0.25,,---,0.38,VWS V13.01,2013-08-23 15:36:00,
2013-08-23 11:41:00,68.0,62.0,29.09,SW,225,0.0,0.0,81,0.29,,---,0.42,VWS V13.01,2013-08-23 15:41:00,
2013-08-23 11:46:00,67.8,61.8,29.09,SW,225,0.0,0.0,81,0.25,,---,0.42,VWS V13.01,2013-08-23 15:46:00,
2013-08-23 11:51:00,67.6,61.6,29.09,SW,225,0.0,0.0,81,0.25,,---,0.42,VWS V13.01,2013-08-23 15:51:00,
2013-08-23 11:56:00,67.6,61.6,29.09,SW,225,0.0,0.0,81,0.25,,---,0.42,VWS V13.01,2013-08-23 15:56:00,
2013-08-23 12:01:00,67.5,61.4,29.09,SW,225,0.0,0.0,81,0.25,,---,0.42,VWS V13.01,2013-08-23 16:01:00,
2013-08-23 12:06:00,67.6,61.6,29.09,SW,225,0.0,0.0,81,0.21,,---,0.42,VWS V13.01,2013-08-23 16:06:00,
2013-08-23 12:11:00,67.6,61.6,29.09,SW,225,0.0,0.0,81,0.21,,---,0.42,VWS V13.01,2013-08-23 16:11:00,
2013-08-23 12:16:00,67.6,61.6,29.09,SW,225,0.0,0.0,81,0.21,,---,0.42,VWS V13.01,2013-08-23 16:16:00,
2013-08-23 12:21:00,67.6,61.6,29.09,SW,225,0.0,0.0,81,0.21,,---,0.42,VWS V13.01,2013-08-23 16:21:00,
2013-08-23 12:26:00,67.6,61.6,29.09,SW,225,0.0,0.0,81,0.04,,---,0.42,VWS V13.01,2013-08-23 16:26:00,
2013-08-23 12:31:00,67.3,61.3,29.09,SW,225,0.0,0.0,81,0.04,,---,0.42,VWS V13.01,2013-08-23 16:31:00,
2013-08-23 12:36:00,67.3,61.3,29.09,SW,225,0.0,0.0,81,0.04,,---,0.42,VWS V13.01,2013-08-23 16:36:00,
2013-08-23 12:42:00,67.1,61.1,29.09,SW,225,0.0,0.0,81,0.04,,---,0.42,VWS V13.01,2013-08-23 16:42:00,
2013-08-23 12:47:00,66.9,60.9,29.09,SW,225,0.0,0.0,81,0.04,,---,0.46,VWS V13.01,2013-08-23 16:47:00,
2013-08-23 12:52:00,66.9,60.9,29.09,SW,225,0.0,0.0,81,0.04,,---,0.46,VWS V13.01,2013-08-23 16:52:00,
2013-08-23 12:57:00,66.7,60.7,29.09,SW,225,0.0,0.0,81,0.04,,---,0.46,VWS V13.01,2013-08-23 16:57:00,
2013-08-23 13:02:00,66.9,60.9,29.09,SW,225,0.0,0.0,81,0.04,,---,0.46,VWS V13.01,2013-08-23 17:02:00,
2013-08-23 13:07:00,66.9,60.9,29.09,SW,225,0.0,0.0,81,0.04,,---,0.46,VWS V13.01,2013-08-23 17:07:00,
2013-08-23 13:12:00,66.7,60.7,29.09,SW,225,0.0,0.0,81,0.04,,---,0.46,VWS V13.01,2013-08-23 17:12:00,
2013-08-23 13:17:00,66.9,60.9,29.09,SW,225,0.0,0.0,81,0.04,,---,0.46,VWS V13.01,2013-08-23 17:17:00,
2013-08-23 13:22:00,66.9,60.9,29.09,SW,225,0.0,0.0,81,0.08,,---,0.50,VWS V13.01,2013-08-23 17:22:00,
2013-08-23 13:27:00,67.1,61.1,29.09,SW,225,0.0,0.0,81,0.08,,---,0.50,VWS V13.01,2013-08-23 17:27:00,
2013-08-23 13:32:00,66.7,60.7,29.09,SW,225,0.0,0.0,81,0.08,,---,0.50,VWS V13.01,2013-08-23 17:32:00,
2013-08-23 13:37:00,67.1,61.1,29.09,SW,225,0.0,0.0,81,0.08,,---,0.50,VWS V13.01,2013-08-23 17:37:00,
2013-08-23 13:42:00,67.3,61.3,29.09,SW,225,0.0,0.0,81,0.08,,---,0.50,VWS V13.01,2013-08-23 17:42:00,
2013-08-23 13:47:00,67.1,61.1,29.09,SW,225,0.0,0.0,81,0.08,,---,0.50,VWS V13.01,2013-08-23 17:47:00,
2013-08-23 13:52:00,67.5,61.4,29.09,SW,225,0.0,0.0,81,0.08,,---,0.50,VWS V13.01,2013-08-23 17:52:00,
2013-08-23 13:57:00,67.5,61.4,29.09,SW,225,0.0,0.0,81,0.08,,---,0.50,VWS V13.01,2013-08-23 17:57:00,
2013-08-23 14:02:00,67.8,61.8,29.09,SW,225,0.0,0.0,81,0.08,,---,0.50,VWS V13.01,2013-08-23 18:02:00,
2013-08-23 14:07:00,68.0,61.6,29.09,SW,225,0.0,0.0,80,0.04,,---,0.50,VWS V13.01,2013-08-23 18:07:00,
2013-08-23 14:12:00,67.8,61.8,29.09,SW,225,0.0,0.0,81,0.04,,---,0.50,VWS V13.01,2013-08-23 18:12:00,
2013-08-23 14:17:00,67.6,61.6,29.09,SW,225,0.0,0.0,81,0.04,,---,0.50,VWS V13.01,2013-08-23 18:17:00,
2013-08-23 14:22:00,68.2,61.8,29.09,SW,225,0.0,0.0,80,0.04,,---,0.50,VWS V13.01,2013-08-23 18:22:00,
2013-08-23 14:27:00,68.4,62.0,29.09,SW,225,0.0,0.0,80,0.00,,---,0.50,VWS V13.01,2013-08-23 18:27:00,
2013-08-23 14:32:00,68.2,61.8,29.09,SW,225,0.0,0.0,80,0.00,,---,0.50,VWS V13.01,2013-08-23 18:32:00,
2013-08-23 14:37:00,68.0,61.6,29.09,SW,225,0.0,0.0,80,0.00,,---,0.50,VWS V13.01,2013-08-23 18:37:00,
2013-08-23 14:43:00,68.0,61.6,29.09,SW,225,0.0,0.0,80,0.00,,---,0.50,VWS V13.01,2013-08-23 18:43:00,
2013-08-23 14:48:00,68.0,61.6,29.09,SW,225,0.0,0.0,80,0.00,,---,0.50,VWS V13.01,2013-08-23 18:48:00,
2013-08-23 14:53:00,68.0,61.6,29.09,SW,225,0.0,0.0,80,0.00,,---,0.50,VWS V13.01,2013-08-23 18:53:00,
2013-08-23 14:58:00,68.2,61.8,29.09,SW,225,0.0,0.0,80,0.00,,---,0.50,VWS V13.01,2013-08-23 18:58:00,
2013-08-23 15:03:00,68.2,61.8,29.09,SW,225,0.0,0.0,80,0.00,,---,0.50,VWS V13.01,2013-08-23 19:03:00,
2013-08-23 15:08:00,68.2,61.8,29.09,SW,225,0.0,0.0,80,0.00,,---,0.50,VWS V13.01,2013-08-23 19:08:00,
2013-08-23 15:13:00,68.4,62.0,29.09,SW,225,0.0,0.0,80,0.00,,---,0.50,VWS V13.01,2013-08-23 19:13:00,
2013-08-23 15:18:00,68.5,62.1,29.09,SW,225,0.0,0.0,80,0.00,,---,0.50,VWS V13.01,2013-08-23 19:18:00,
2013-08-23 15:23:00,68.5,62.1,29.09,SW,225,0.0,0.0,80,0.00,,---,0.50,VWS V13.01,2013-08-23 19:23:00,
2013-08-23 15:28:00,68.9,62.8,29.09,SW,225,0.0,0.0,81,0.00,,---,0.50,VWS V13.01,2013-08-23 19:28:00,
2013-08-23 15:33:00,69.1,63.0,29.09,SW,225,0.0,0.0,81,0.00,,---,0.50,VWS V13.01,2013-08-23 19:33:00,
2013-08-23 15:38:00,69.3,63.2,29.09,SW,225,0.0,0.0,81,0.00,,---,0.50,VWS V13.01,2013-08-23 19:38:00,
2013-08-23 15:43:00,69.4,63.4,29.09,SW,225,0.0,0.0,81,0.00,,---,0.50,VWS V13.01,2013-08-23 19:43:00,
2013-08-23 15:48:00,70.0,63.5,29.09,SW,225,0.0,0.0,80,0.04,,---,0.54,VWS V13.01,2013-08-23 19:48:00,
2013-08-23 15:53:00,70.0,63.5,29.09,SW,225,0.0,0.0,80,0.04,,---,0.54,VWS V13.01,2013-08-23 19:53:00,
2013-08-23 15:58:00,70.0,63.5,29.09,SW,225,0.0,0.0,80,0.04,,---,0.54,VWS V13.01,2013-08-23 19:58:00,
2013-08-23 16:03:00,70.0,63.5,29.09,SW,225,0.0,0.0,80,0.04,,---,0.54,VWS V13.01,2013-08-23 20:03:00,
2013-08-23 16:08:00,70.5,64.1,29.09,SW,225,0.0,0.0,80,0.04,,---,0.54,VWS V13.01,2013-08-23 20:08:00,
2013-08-23 16:13:00,70.5,64.1,29.09,SW,225,0.0,0.0,80,0.04,,---,0.54,VWS V13.01,2013-08-23 20:13:00,
2013-08-23 16:18:00,71.8,65.3,29.09,SW,225,0.0,0.0,80,0.04,,---,0.54,VWS V13.01,2013-08-23 20:18:00,
2013-08-23 16:23:00,72.1,65.6,29.09,SW,225,0.0,0.0,80,0.04,,---,0.54,VWS V13.01,2013-08-23 20:23:00,
2013-08-23 16:28:00,72.1,65.6,29.09,SW,225,0.0,0.0,80,0.04,,---,0.54,VWS V13.01,2013-08-23 20:28:00,
2013-08-23 16:33:00,72.1,65.6,29.09,SW,225,0.0,0.0,80,0.04,,---,0.54,VWS V13.01,2013-08-23 20:33:00,
2013-08-23 16:38:00,72.1,65.6,29.09,SW,225,0.0,0.0,80,0.04,,---,0.54,VWS V13.01,2013-08-23 20:38:00,
2013-08-23 16:43:00,72.5,66.0,29.09,SW,225,0.0,0.0,80,0.04,,---,0.54,VWS V13.01,2013-08-23 20:43:00,
2013-08-23 16:49:00,72.9,66.3,29.09,SW,225,0.0,0.0,80,0.00,,---,0.54,VWS V13.01,2013-08-23 20:49:00,
2013-08-23 16:54:00,73.4,66.5,29.09,SW,225,0.0,0.0,79,0.00,,---,0.54,VWS V13.01,2013-08-23 20:54:00,
2013-08-23 16:59:00,73.4,66.5,29.09,SW,225,0.0,0.0,79,0.00,,---,0.54,VWS V13.01,2013-08-23 20:59:00,
2013-08-23 17:04:00,72.9,66.0,29.09,SW,225,0.0,0.0,79,0.00,,---,0.54,VWS V13.01,2013-08-23 21:04:00,
2013-08-23 17:09:00,72.3,65.4,29.09,SW,225,0.0,0.0,79,0.00,,---,0.54,VWS V13.01,2013-08-23 21:09:00,
2013-08-23 17:14:00,72.0,64.7,29.09,SW,225,0.0,0.0,78,0.00,,---,0.54,VWS V13.01,2013-08-23 21:14:00,
2013-08-23 17:19:00,72.0,64.7,29.09,SW,225,0.0,0.0,78,0.00,,---,0.54,VWS V13.01,2013-08-23 21:19:00,
2013-08-23 17:24:00,72.1,64.9,29.09,SW,225,0.0,0.0,78,0.00,,---,0.54,VWS V13.01,2013-08-23 21:24:00,
2013-08-23 17:29:00,71.8,64.2,29.09,SW,225,0.0,0.0,77,0.00,,---,0.54,VWS V13.01,2013-08-23 21:29:00,
2013-08-23 17:34:00,71.8,64.2,29.09,SW,225,0.0,0.0,77,0.00,,---,0.54,VWS V13.01,2013-08-23 21:34:00,
2013-08-23 17:39:00,72.0,64.4,29.09,SW,225,0.0,0.0,77,0.00,,---,0.54,VWS V13.01,2013-08-23 21:39:00,
2013-08-23 17:44:00,71.4,63.8,29.09,SW,225,0.0,0.0,77,0.00,,---,0.54,VWS V13.01,2013-08-23 21:44:00,
2013-08-23 17:49:00,70.5,62.6,29.09,SW,225,0.0,0.0,76,0.00,,---,0.54,VWS V13.01,2013-08-23 21:49:00,
2013-08-23 17:54:00,70.7,62.8,29.09,SW,225,0.0,0.0,76,0.00,,---,0.54,VWS V13.01,2013-08-23 21:54:00,
2013-08-23 17:59:00,69.8,61.2,29.09,SW,225,0.0,0.0,74,0.00,,---,0.54,VWS V13.01,2013-08-23 21:59:00,
2013-08-23 18:04:00,70.0,61.7,29.09,SW,225,0.0,0.0,75,0.00,,---,0.54,VWS V13.01,2013-08-23 22:04:00,
2013-08-23 18:09:00,69.8,61.9,29.09,SW,225,0.0,0.0,76,0.00,,---,0.54,VWS V13.01,2013-08-23 22:09:00,
2013-08-23 18:14:00,69.4,61.9,29.09,SW,225,0.0,0.0,77,0.00,,---,0.54,VWS V13.01,2013-08-23 22:14:00,
2013-08-23 18:19:00,69.4,62.3,29.09,SW,225,0.0,0.0,78,0.00,,---,0.54,VWS V13.01,2013-08-23 22:19:00,
2013-08-23 18:24:00,69.1,61.9,29.09,SW,225,0.0,0.0,78,0.00,,---,0.54,VWS V13.01,2013-08-23 22:24:00,
2013-08-23 18:29:00,69.1,61.9,29.09,SW,225,0.0,0.0,78,0.00,,---,0.54,VWS V13.01,2013-08-23 22:29:00,
2013-08-23 18:34:00,69.1,61.9,29.09,SW,225,0.0,0.0,78,0.00,,---,0.54,VWS V13.01,2013-08-23 22:34:00,
2013-08-23 18:39:00,68.9,61.8,29.09,SW,225,0.0,0.0,78,0.00,,---,0.54,VWS V13.01,2013-08-23 22:39:00,
2013-08-23 18:44:00,68.9,62.1,29.09,SW,225,0.0,0.0,79,0.00,,---,0.54,VWS V13.01,2013-08-23 22:44:00,
2013-08-23 18:49:00,68.9,62.1,29.09,SW,225,0.0,0.0,79,0.00,,---,0.54,VWS V13.01,2013-08-23 22:49:00,
2013-08-23 18:55:00,69.1,62.3,29.09,SW,225,0.0,0.0,79,0.00,,---,0.54,VWS V13.01,2013-08-23 22:55:00,
2013-08-23 19:00:00,68.9,62.1,29.09,SW,225,0.0,0.0,79,0.00,,---,0.54,VWS V13.01,2013-08-23 23:00:00,
2013-08-23 19:05:00,68.9,62.1,29.09,SW,225,0.0,0.0,79,0.00,,---,0.54,VWS V13.01,2013-08-23 23:05:00,
2013-08-23 19:10:00,68.5,61.8,29.09,SW,225,0.0,0.0,79,0.00,,---,0.54,VWS V13.01,2013-08-23 23:10:00,
2013-08-23 19:15:00,68.4,61.6,29.09,SW,225,0.0,0.0,79,0.00,,---,0.54,VWS V13.01,2013-08-23 23:15:00,
2013-08-23 19:20:00,68.4,61.6,29.09,SW,225,0.0,0.0,79,0.00,,---,0.54,VWS V13.01,2013-08-23 23:20:00,
2013-08-23 19:25:00,68.2,61.4,29.09,SW,225,0.0,0.0,79,0.00,,---,0.54,VWS V13.01,2013-08-23 23:25:00,
2013-08-23 19:30:00,68.0,61.2,29.09,SW,225,0.0,0.0,79,0.00,,---,0.54,VWS V13.01,2013-08-23 23:30:00,
2013-08-23 19:35:00,68.0,61.2,29.09,SW,225,0.0,0.0,79,0.00,,---,0.54,VWS V13.01,2013-08-23 23:35:00,
2013-08-23 19:40:00,68.0,61.2,29.09,SW,225,0.0,0.0,79,0.00,,---,0.54,VWS V13.01,2013-08-23 23:40:00,
2013-08-23 19:45:00,68.0,61.6,29.09,SW,225,0.0,0.0,80,0.00,,---,0.54,VWS V13.01,2013-08-23 23:45:00,
2013-08-23 19:50:00,67.8,61.4,29.09,SW,225,0.0,0.0,80,0.00,,---,0.54,VWS V13.01,2013-08-23 23:50:00,
2013-08-23 19:55:00,67.8,61.4,29.09,SW,225,0.0,0.0,80,0.00,,---,0.54,VWS V13.01,2013-08-23 23:55:00,
2013-08-23 20:00:00,67.6,61.3,29.09,SW,225,0.0,0.0,80,0.00,,---,0.54,VWS V13.01,2013-08-24 00:00:00,
2013-08-23 20:05:00,67.6,61.3,29.09,SW,225,0.0,0.0,80,0.00,,---,0.54,VWS V13.01,2013-08-24 00:05:00,
2013-08-23 20:10:00,67.6,61.3,29.09,SW,225,0.0,0.0,80,0.00,,---,0.54,VWS V13.01,2013-08-24 00:10:00,
2013-08-23 20:15:00,67.5,61.1,29.09,SW,225,0.0,0.0,80,0.00,,---,0.54,VWS V13.01,2013-08-24 00:15:00,
2013-08-23 20:20:00,67.5,61.4,29.09,SW,225,0.0,0.0,81,0.00,,---,0.54,VWS V13.01,2013-08-24 00:20:00,
2013-08-23 20:25:00,67.3,61.3,29.09,SW,225,0.0,0.0,81,0.00,,---,0.54,VWS V13.01,2013-08-24 00:25:00,
2013-08-23 20:30:00,67.3,61.3,29.09,SW,225,0.0,0.0,81,0.00,,---,0.54,VWS V13.01,2013-08-24 00:30:00,
2013-08-23 20:35:00,67.1,61.1,29.09,SW,225,0.0,0.0,81,0.00,,---,0.54,VWS V13.01,2013-08-24 00:35:00,
2013-08-23 20:40:00,66.9,60.9,29.09,SW,225,0.0,0.0,81,0.00,,---,0.54,VWS V13.01,2013-08-24 00:40:00,
2013-08-23 20:45:00,66.7,60.7,29.09,SW,225,0.0,0.0,81,0.00,,---,0.54,VWS V13.01,2013-08-24 00:45:00,
2013-08-23 20:51:00,66.6,60.6,29.12,SW,225,0.0,0.0,81,0.00,,---,0.54,VWS V13.01,2013-08-24 00:51:00,
2013-08-23 20:56:00,66.6,60.6,29.12,SW,225,0.0,0.0,81,0.00,,---,0.54,VWS V13.01,2013-08-24 00:56:00,
2013-08-23 21:01:00,66.6,60.6,29.12,SW,225,0.0,0.0,81,0.00,,---,0.54,VWS V13.01,2013-08-24 01:01:00,
2013-08-23 21:06:00,66.6,60.6,29.12,SW,225,0.0,0.0,81,0.00,,---,0.54,VWS V13.01,2013-08-24 01:06:00,
2013-08-23 21:11:00,66.4,60.4,29.12,SW,225,0.0,0.0,81,0.00,,---,0.54,VWS V13.01,2013-08-24 01:11:00,
2013-08-23 21:16:00,66.2,60.2,29.12,SW,225,0.0,0.0,81,0.00,,---,0.54,VWS V13.01,2013-08-24 01:16:00,
2013-08-23 21:21:00,66.2,60.2,29.12,SW,225,0.0,0.0,81,0.00,,---,0.54,VWS V13.01,2013-08-24 01:21:00,
2013-08-23 21:26:00,66.2,60.2,29.12,SW,225,0.0,0.0,81,0.00,,---,0.54,VWS V13.01,2013-08-24 01:26:00,
2013-08-23 21:31:00,66.2,60.2,29.12,SW,225,0.0,0.0,81,0.00,,---,0.54,VWS V13.01,2013-08-24 01:31:00,
2013-08-23 21:36:00,66.2,60.2,29.12,SW,225,0.0,0.0,81,0.00,,---,0.54,VWS V13.01,2013-08-24 01:36:00,
2013-08-23 21:41:00,66.2,60.2,29.12,SW,225,0.0,0.0,81,0.00,,---,0.54,VWS V13.01,2013-08-24 01:41:00,
2013-08-23 21:46:00,66.0,60.0,29.12,SW,225,0.0,0.0,81,0.00,,---,0.54,VWS V13.01,2013-08-24 01:46:00,
2013-08-23 21:51:00,65.8,59.8,29.12,SW,225,0.0,0.0,81,0.00,,---,0.54,VWS V13.01,2013-08-24 01:51:00,
2013-08-23 21:56:00,65.8,59.8,29.12,SW,225,0.0,0.0,81,0.00,,---,0.54,VWS V13.01,2013-08-24 01:56:00,
2013-08-23 22:01:00,65.8,59.8,29.12,SW,225,0.0,0.0,81,0.00,,---,0.54,VWS V13.01,2013-08-24 02:01:00,
2013-08-23 22:06:00,65.8,59.8,29.12,SW,225,0.0,0.0,81,0.00,,---,0.54,VWS V13.01,2013-08-24 02:06:00,
2013-08-23 22:11:00,65.7,59.7,29.12,SW,225,0.0,0.0,81,0.00,,---,0.54,VWS V13.01,2013-08-24 02:11:00,
2013-08-23 22:16:00,65.8,59.8,29.12,SW,225,0.0,0.0,81,0.00,,---,0.54,VWS V13.01,2013-08-24 02:16:00,
2013-08-23 22:21:00,65.8,59.8,29.14,SW,225,0.0,0.0,81,0.00,,---,0.54,VWS V13.01,2013-08-24 02:21:00,
2013-08-23 22:26:00,65.8,59.8,29.14,SW,225,0.0,0.0,81,0.00,,---,0.54,VWS V13.01,2013-08-24 02:26:00,
2013-08-23 22:31:00,66.0,60.0,29.14,SW,225,0.0,0.0,81,0.00,,---,0.54,VWS V13.01,2013-08-24 02:31:00,
2013-08-23 22:36:00,66.0,60.0,29.14,SW,225,0.0,0.0,81,0.00,,---,0.54,VWS V13.01,2013-08-24 02:36:00,
2013-08-23 22:41:00,66.0,60.0,29.14,SW,225,0.0,0.0,81,0.00,,---,0.54,VWS V13.01,2013-08-24 02:41:00,
2013-08-23 22:46:00,66.2,60.2,29.14,SW,225,0.0,0.0,81,0.00,,---,0.54,VWS V13.01,2013-08-24 02:46:00,
2013-08-23 22:52:00,66.2,60.2,29.14,SW,225,0.0,0.0,81,0.00,,---,0.54,VWS V13.01,2013-08-24 02:52:00,
2013-08-23 22:57:00,66.2,60.2,29.14,SW,225,0.0,0.0,81,0.00,,---,0.54,VWS V13.01,2013-08-24 02:57:00,
2013-08-23 23:02:00,66.2,60.2,29.14,SW,225,0.0,0.0,81,0.00,,---,0.54,VWS V13.01,2013-08-24 03:02:00,
2013-08-23 23:07:00,66.4,60.4,29.14,SW,225,0.0,0.0,81,0.00,,---,0.54,VWS V13.01,2013-08-24 03:07:00,
2013-08-23 23:12:00,66.4,60.4,29.14,SW,225,0.0,0.0,81,0.00,,---,0.54,VWS V13.01,2013-08-24 03:12:00,
2013-08-23 23:17:00,66.4,60.4,29.14,SW,225,0.0,0.0,81,0.00,,---,0.54,VWS V13.01,2013-08-24 03:17:00,
2013-08-23 23:22:00,66.4,60.4,29.14,SW,225,0.0,0.0,81,0.00,,---,0.54,VWS V13.01,2013-08-24 03:22:00,
2013-08-23 23:27:00,66.2,60.2,29.14,SW,225,0.0,0.0,81,0.00,,---,0.54,VWS V13.01,2013-08-24 03:27:00,
2013-08-23 23:32:00,66.0,60.0,29.14,SW,225,0.0,0.0,81,0.00,,---,0.54,VWS V13.01,2013-08-24 03:32:00,
2013-08-23 23:37:00,65.8,59.8,29.14,SW,225,0.0,0.0,81,0.00,,---,0.54,VWS V13.01,2013-08-24 03:37:00,
2013-08-23 23:42:00,65.7,59.7,29.14,SW,225,0.0,0.0,81,0.00,,---,0.54,VWS V13.01,2013-08-24 03:42:00,
2013-08-23 23:47:00,65.7,59.7,29.14,SW,225,0.0,0.0,81,0.00,,---,0.54,VWS V13.01,2013-08-24 03:47:00,
2013-08-23 23:52:00,65.7,59.7,29.14,SW,225,0.0,0.0,81,0.00,,---,0.54,VWS V13.01,2013-08-24 03:52:00,
2013-08-23 23:57:00,65.5,59.5,29.14,SW,225,0.0,0.0,81,0.00,,---,0.54,VWS V13.01,2013-08-24 03:57:00,